• In Latvia
  • List of Countries
  • For 7 days
  • Water Temperature
  • Satellite Maps
  • Weather Map
  • Weather Widgets
  • user-avatar
    Login

    Hourly Weather Lubango

    Today, 20 August, Sunday

    Time Temperature Precipitation Wind Pressure Humidity
    00:00 +13°C° 0 mm 1 mps 610 mmHg 65%
    01:00 +13°C° 0 mm 1 mps 609 mmHg 65%
    02:00 +13°C° 0 mm 1 mps 609 mmHg 64%
    03:00 +13°C° 0 mm 1 mps 609 mmHg 63%
    04:00 +13°C° 0 mm 1 mps 609 mmHg 61%
    05:00 +13°C° 0 mm 1 mps 609 mmHg 57%
    06:00 +13°C° 0 mm 1 mps 610 mmHg 53%
    07:00 +14°C° 0 mm 1 mps 610 mmHg 49%
    08:00 +18°C° 0 mm 1 mps 611 mmHg 38%
    09:00 +21°C° 0 mm 2 mps 613 mmHg 28%
    10:00 +26°C° 0 mm 2 mps 615 mmHg 17%
    11:00 +27°C° 0 mm 2 mps 614 mmHg 16%
    12:00 +29°C° 0 mm 2 mps 614 mmHg 14%
    13:00 +30°C° 0 mm 2 mps 614 mmHg 12%
    14:00 +30°C° 0 mm 2 mps 613 mmHg 12%
    15:00 +30°C° 0 mm 2 mps 613 mmHg 12%
    16:00 +29°C° 0 mm 2 mps 612 mmHg 12%
    17:00 +26°C° 0 mm 2 mps 612 mmHg 18%
    18:00 +23°C° 0 mm 2 mps 611 mmHg 23%
    19:00 +19°C° 0 mm 2 mps 610 mmHg 28%
    20:00 +18°C° 0 mm 2 mps 610 mmHg 31%
    21:00 +17°C° 0 mm 2 mps 610 mmHg 35%
    22:00 +16°C° 0 mm 2 mps 610 mmHg 38%
    23:00 +16°C° 0 mm 1 mps 610 mmHg 37%

    Tomorrow, 21 August, Monday

    Time Temperature Precipitation Wind Pressure Humidity
    00:00 +16°C° 0 mm 1 mps 610 mmHg 35%
    01:00 +15°C° 0 mm 1 mps 610 mmHg 34%
    02:00 +15°C° 0 mm 1 mps 609 mmHg 34%
    03:00 +14°C° 0 mm 1 mps 609 mmHg 33%
    04:00 +13°C° 0 mm 1 mps 609 mmHg 33%
    05:00 +14°C° 0 mm 1 mps 609 mmHg 30%
    06:00 +14°C° 0 mm 1 mps 609 mmHg 28%
    07:00 +14°C° 0 mm 1 mps 610 mmHg 25%
    08:00 +18°C° 0 mm 3 mps 611 mmHg 20%
    09:00 +22°C° 0 mm 4 mps 613 mmHg 15%
    10:00 +27°C° 0 mm 5 mps 615 mmHg 10%
    11:00 +28°C° 0 mm 4 mps 614 mmHg 10%
    12:00 +29°C° 0 mm 4 mps 614 mmHg 9%
    13:00 +31°C° 0 mm 3 mps 614 mmHg 9%
    14:00 +30°C° 0 mm 3 mps 613 mmHg 9%
    15:00 +30°C° 0 mm 3 mps 613 mmHg 10%
    16:00 +30°C° 0 mm 3 mps 612 mmHg 10%
    17:00 +26°C° 0 mm 2 mps 611 mmHg 16%
    18:00 +23°C° 0 mm 2 mps 610 mmHg 23%
    19:00 +18°C° 0 mm 2 mps 609 mmHg 29%
    20:00 +17°C° 0 mm 2 mps 610 mmHg 32%
    21:00 +16°C° 0 mm 1 mps 610 mmHg 35%
    22:00 +15°C° 0 mm 1 mps 610 mmHg 38%
    23:00 +15°C° 0 mm 1 mps 609 mmHg 36%

    Day after tomorrow, 22 August, Tuesday

    Time Temperature Precipitation Wind Pressure Humidity
    00:00 +15°C° 0 mm 2 mps 609 mmHg 34%
    01:00 +15°C° 0 mm 2 mps 609 mmHg 32%
    02:00 +14°C° 0 mm 2 mps 608 mmHg 29%
    03:00 +14°C° 0 mm 2 mps 608 mmHg 26%
    04:00 +14°C° 0 mm 2 mps 608 mmHg 23%
    05:00 +14°C° 0 mm 2 mps 608 mmHg 21%
    06:00 +14°C° 0 mm 2 mps 609 mmHg 20%
    07:00 +15°C° 0 mm 2 mps 609 mmHg 18%
    08:00 +18°C° 0 mm 3 mps 611 mmHg 15%
    09:00 +22°C° 0 mm 4 mps 612 mmHg 13%
    10:00 +27°C° 0 mm 5 mps 614 mmHg 11%
    11:00 +28°C° 0 mm 4 mps 614 mmHg 10%
    12:00 +30°C° 0 mm 4 mps 613 mmHg 9%
    13:00 +31°C° 0 mm 3 mps 613 mmHg 8%
    14:00 +31°C° 0 mm 3 mps 612 mmHg 8%
    15:00 +31°C° 0 mm 3 mps 612 mmHg 8%
    16:00 +30°C° 0 mm 4 mps 611 mmHg 9%
    17:00 +27°C° 0 mm 3 mps 610 mmHg 14%
    18:00 +24°C° 0 mm 2 mps 609 mmHg 19%
    19:00 +19°C° 0 mm 2 mps 608 mmHg 25%
    20:00 +18°C° 0 mm 2 mps 608 mmHg 28%
    21:00 +18°C° 0 mm 1 mps 608 mmHg 31%
    22:00 +16°C° 0 mm 1 mps 608 mmHg 34%
    23:00 +15°C° 0 mm 1 mps 608 mmHg 33%

    23 August, Wednesday

    Time Temperature Precipitation Wind Pressure Humidity
    00:00 +15°C° 0 mm 1 mps 607 mmHg 32%
    01:00 +14°C° 0 mm 1 mps 607 mmHg 31%
    02:00 +14°C° 0 mm 1 mps 607 mmHg 30%
    03:00 +14°C° 0 mm 1 mps 607 mmHg 28%
    04:00 +13°C° 0 mm 1 mps 606 mmHg 27%
    05:00 +14°C° 0 mm 1 mps 607 mmHg 26%
    06:00 +14°C° 0 mm 1 mps 607 mmHg 24%
    07:00 +14°C° 0 mm 1 mps 608 mmHg 23%
    08:00 +18°C° 0 mm 2 mps 610 mmHg 20%
    09:00 +22°C° 0 mm 3 mps 611 mmHg 17%
    10:00 +27°C° 0 mm 3 mps 613 mmHg 13%
    11:00 +28°C° 0 mm 3 mps 612 mmHg 13%
    12:00 +29°C° 0 mm 3 mps 612 mmHg 12%
    13:00 +30°C° 0 mm 2 mps 612 mmHg 11%
    14:00 +29°C° 0 mm 3 mps 611 mmHg 14%
    15:00 +29°C° 0 mm 3 mps 611 mmHg 17%
    16:00 +28°C° 0 mm 3 mps 610 mmHg 19%
    17:00 +24°C° 0 mm 3 mps 609 mmHg 32%
    18:00 +20°C° 0 mm 2 mps 609 mmHg 44%
    19:00 +17°C° 0 mm 2 mps 608 mmHg 57%
    20:00 +16°C° 0 mm 2 mps 608 mmHg 64%
    21:00 +14°C° 0 mm 1 mps 608 mmHg 71%
    22:00 +13°C° 0 mm 1 mps 608 mmHg 78%
    23:00 +13°C° 0 mm 1 mps 608 mmHg 80%

    24 August, Thursday

    Time Temperature Precipitation Wind Pressure Humidity
    00:00 +13°C° 0 mm 1 mps 608 mmHg 81%
    01:00 +12°C° 0 mm 1 mps 607 mmHg 82%
    02:00 +12°C° 0 mm 1 mps 607 mmHg 83%
    03:00 +12°C° 0 mm 1 mps 607 mmHg 83%
    04:00 +11°C° 0 mm 1 mps 607 mmHg 84%
    05:00 +11°C° 0 mm 1 mps 607 mmHg 81%
    06:00 +12°C° 0 mm 1 mps 608 mmHg 77%
    07:00 +12°C° 0 mm 1 mps 608 mmHg 73%
    08:00 +15°C° 0 mm 1 mps 609 mmHg 59%
    09:00 +19°C° 0 mm 2 mps 611 mmHg 45%
    10:00 +23°C° 0 mm 2 mps 612 mmHg 31%
    11:00 +24°C° 0 mm 2 mps 612 mmHg 28%
    12:00 +25°C° 0 mm 2 mps 612 mmHg 25%
    13:00 +27°C° 0 mm 3 mps 612 mmHg 22%
    14:00 +26°C° 0 mm 3 mps 611 mmHg 25%
    15:00 +26°C° 0 mm 4 mps 611 mmHg 27%
    16:00 +25°C° 0 mm 4 mps 610 mmHg 30%
    17:00 +21°C° 0 mm 4 mps 610 mmHg 42%
    18:00 +18°C° 0 mm 3 mps 609 mmHg 54%
    19:00 +15°C° 0 mm 2 mps 609 mmHg 65%
    20:00 +14°C° 0 mm 2 mps 609 mmHg 72%
    21:00 +13°C° 0 mm 2 mps 609 mmHg 78%
    22:00 +12°C° 0 mm 1 mps 609 mmHg 84%
    23:00 +12°C° 0 mm 1 mps 608 mmHg 85%

    25 August, Friday

    Time Temperature Precipitation Wind Pressure Humidity
    00:00 +12°C° 0 mm 1 mps 608 mmHg 87%
    01:00 +11°C° 0 mm 1 mps 608 mmHg 88%
    02:00 +11°C° 0 mm 1 mps 608 mmHg 88%
    03:00 +11°C° 0 mm 1 mps 608 mmHg 88%
    04:00 +11°C° 0 mm 1 mps 608 mmHg 88%
    05:00 +11°C° 0 mm 1 mps 608 mmHg 86%
    06:00 +10°C° 0 mm 0 mps 608 mmHg 83%
    07:00 +11°C° 0 mm 0 mps 609 mmHg 80%
    08:00 +14°C° 0 mm 0 mps 610 mmHg 64%
    09:00 +20°C° 0 mm 1 mps 612 mmHg 48%
    10:00 +24°C° 0 mm 1 mps 613 mmHg 32%
    11:00 +25°C° 0 mm 1 mps 613 mmHg 28%
    12:00 +27°C° 0 mm 2 mps 613 mmHg 24%
    13:00 +29°C° 0 mm 2 mps 613 mmHg 20%
    14:00 +28°C° 0 mm 2 mps 612 mmHg 21%
    15:00 +27°C° 0 mm 3 mps 611 mmHg 23%
    16:00 +27°C° 0 mm 3 mps 611 mmHg 24%
    17:00 +24°C° 0 mm 3 mps 610 mmHg 33%
    18:00 +20°C° 0 mm 3 mps 610 mmHg 41%
    19:00 +17°C° 0 mm 2 mps 609 mmHg 50%
    20:00 +16°C° 0 mm 2 mps 609 mmHg 54%
    21:00 +15°C° 0 mm 1 mps 609 mmHg 58%
    22:00 +14°C° 0 mm 1 mps 609 mmHg 63%
    23:00 +14°C° 0 mm 1 mps 608 mmHg 64%
    Show more